Overview Statistics Trail Chart Weather Telemetry Raw packets
 

This is the latest recevied weather packets stored in our database for station/object F8KHU-13. If no packets are shown the sender has not sent any weather packets the latest 10 day(s).

<< 29 30 31 32 33 34 35 >>
Time Temp. Humidity Pressure Rain* Wind** Luminosity Snow
1788336641 16.67° C 30% 1021.5 hPa 0 mm - 0 W/m² -
1788336621 16.67° C 29% 1021.6 hPa 0 mm - 0 W/m² -
1788335761 16.67° C 30% 1021.5 hPa 0 mm - 0 W/m² -
1788335741 16.67° C 30% 1021.6 hPa 0 mm - 0 W/m² -
1788334861 15.56° C 31% 1021.6 hPa 0 mm - 0 W/m² -
1788334821 15.56° C 31% 1021.6 hPa 0 mm - 0 W/m² -
1788333062 15.56° C 31% 1021.2 hPa 0 mm - 0 W/m² -
1788333042 15.56° C 31% 1021.3 hPa 0 mm - 0 W/m² -
1788332162 15° C 31% 1021.2 hPa 0 mm - 0 W/m² -
1788332142 15° C 31% 1021.1 hPa 0 mm - 0 W/m² -
1788332121 15° C 31% 1021.1 hPa 0 mm - 0 W/m² -
1788331242 13.89° C 31% 1021.2 hPa 0 mm - 0 W/m² -
1788331221 13.89° C 31% 1021.1 hPa 0 mm - 0 W/m² -
1788330362 13.89° C 32% 1021.1 hPa 0 mm - 0 W/m² -
1788330342 14.44° C 31% 1021.1 hPa 0 mm - 0 W/m² -
1788330321 14.44° C 31% 1021.1 hPa 0 mm - 0 W/m² -
1788329462 13.89° C 31% 1021 hPa 0 mm - 0 W/m² -
1788329422 13.89° C 32% 1021 hPa 0 mm - 0 W/m² -
1788328562 13.89° C 31% 1021.1 hPa 0 mm - 0 W/m² -
1788328522 13.89° C 31% 1021.1 hPa 0 mm - 0 W/m² -
1788327662 13.89° C 31% 1021 hPa 0 mm - 0 W/m² -
1788327642 13.89° C 31% 1020.9 hPa 0 mm - 0 W/m² -
1788327622 13.89° C 31% 1020.9 hPa 0 mm - 0 W/m² -
1788326762 13.89° C 31% 1020.8 hPa 0 mm - 0 W/m² -
1788326742 13.89° C 31% 1020.8 hPa 0 mm - 0 W/m² -

* Rain latest hour (hover to see other rain measurements)
** Current wind speed in m/s (hover to see current wind gust speed)